Content
SEND FEEDBACK

Daily
Averages
Monthly
Summary
United States of America

UMATAC, GUAM


Home > North America > United States > Guam
Elevation: 190 feet     Latitude: 13 17N     Longitude: 144 40E

WEATHER
 
SELECT A DAY
Number of Records: 342,637;   Date Range: 1/1/95 - 9/20/14
 
SHARE

PRINT THIS DATA

[ ← Previous Day ]
WEATHER ALMANAC - OCTOBER 12, 2013
[ Next Day → ]
[ °C ]   °F
Weather ElementAverageHighLow
Temperature78.4 °F81.5 °F (9:58 am)71.6 °F (11:38 pm)
Dewpoint75.7 °F78.8 °F (1:35 pm)69.8 °F (5:58 am)
Humidity91.6 %100 % (2:08 pm)82 % (11:58 am)
Barometer29.72 in29.79 in (9:36 pm)29.61 in (1:58 am)
Wind Speed19.3 mph34.5 mph (1:47 pm)
Wind Gust46 mph (1:47 pm)
Weather ElementAverage
Visibility8.3 mi
Wind DirectionSSW (197.8 °)

Weather ElementTotal
Precipitation0.77 in
Cooling Degree Days11.6 (Base 65)
Growing Degree Days26.6 (Base 50)
Averaged from 127 records on October 12, 2013
WEATHER CONDITIONS BREAKOUT
WIND DIRECTION BREAKOUT
WEATHER BY HOUR - OCTOBER 12, 2013
[ °C ]   °F
Local TimeTemperatureDewpointHumidityBarometerVisibilityWind DirectionWind SpeedGust SpeedPrecipitationEventsConditions
12:58 AM78.6 °F75.7 °F91 %29.62 in10.0 miSSW (200°)20.7 mph31.1 mphScattered Clouds
1:08 AM78.8 °F75.2 °F89 %29.65 in10.0 miSSW (200°)23.0 mph33.4 mphMostly Cloudy
1:58 AM79.7 °F76.5 °F90 %29.61 in10.0 miSSW (200°)18.4 mph31.1 mphMostly Cloudy
2:18 AM80.6 °F77.0 °F89 %29.65 in10.0 miSSW (200°)18.4 mph29.9 mphMostly Cloudy
2:23 AM78.8 °F75.2 °F89 %29.65 in10.0 miSSW (200°)16.1 mph27.6 mphMostly Cloudy
2:28 AM78.8 °F75.2 °F89 %29.65 in10.0 miSSW (210°)20.7 mph31.1 mphMostly Cloudy
2:38 AM78.8 °F75.2 °F89 %29.65 in10.0 miSSW (200°)21.9 mph31.1 mphScattered Clouds
2:48 AM78.8 °F75.2 °F89 %29.65 in10.0 miSSW (200°)19.6 mph29.9 mphMostly Cloudy
2:53 AM78.8 °F77.0 °F94 %29.64 in10.0 miSSW (200°)20.7 mph28.8 mphMostly Cloudy
2:58 AM79.3 °F75.9 °F89 %29.61 in10.0 miSSW (200°)21.9 mph31.1 mphMostly Cloudy
3:13 AM80.6 °F77.0 °F89 %29.65 in10.0 miSSW (200°)19.6 mph29.9 mphMostly Cloudy
3:18 AM80.6 °F77.0 °F89 %29.66 in10.0 miSSW (210°)16.1 mph29.9 mphMostly Cloudy
3:23 AM80.6 °F75.2 °F84 %29.66 in10.0 miSSW (210°)20.7 mph31.1 mphMostly Cloudy
3:28 AM80.6 °F77.0 °F89 %29.67 in10.0 miSouth (190°)26.5 mph34.5 mphScattered Clouds
3:48 AM80.6 °F75.2 °F84 %29.67 in10.0 miSSW (210°)19.6 mph33.4 mphMostly Cloudy
3:53 AM78.8 °F75.2 °F89 %29.67 in10.0 miSSW (200°)17.3 mph33.4 mphScattered Clouds
3:58 AM79.7 °F75.4 °F87 %29.64 in10.0 miSSW (200°)26.5 mph32.2 mphScattered Clouds
3:59 AM78.8 °F75.2 °F89 %29.67 in9.0 miSSW (200°)27.6 mph38.0 mphRainLight Rain
4:04 AM78.8 °F77.0 °F94 %29.67 in8.0 miSSW (200°)20.7 mph38.0 mphRainLight Rain
4:07 AM80.6 °F77.0 °F89 %29.68 in8.0 miSSW (200°)18.4 mph38.0 mphMostly Cloudy
4:12 AM78.8 °F75.2 °F89 %29.67 in10.0 miSSW (200°)16.1 mph34.5 mphScattered Clouds
4:22 AM80.6 °F75.2 °F84 %29.67 in10.0 miSSW (210°)17.3 mph28.8 mphMostly Cloudy
4:47 AM78.8 °F75.2 °F89 %29.68 in10.0 miSSW (210°)16.1 mph29.9 mphMostly Cloudy
4:58 AM78.8 °F75.2 °F89 %29.65 in10.0 miSSW (210°)17.3 mph25.3 mph0.00 inScattered Clouds
5:23 AM78.8 °F75.2 °F89 %29.69 in10.0 miSSW (200°)18.4 mph27.6 mphMostly Cloudy
5:28 AM78.8 °F75.2 °F89 %29.69 in10.0 miSSW (200°)18.4 mph28.8 mphScattered Clouds
5:58 AM72.9 °F69.8 °F90 %29.67 in10.0 miSSW (210°)18.4 mph27.6 mphScattered Clouds
6:03 AM75.2 °F71.6 °F89 %29.70 in10.0 miSSW (200°)20.7 mph27.6 mphMostly Cloudy
6:08 AM77.0 °F73.4 °F89 %29.70 in10.0 miSSW (200°)19.6 mph26.5 mphMostly Cloudy
6:13 AM75.2 °F69.8 °F83 %29.70 in10.0 miSSW (200°)16.1 mph26.5 mphMostly Cloudy
6:18 AM75.2 °F71.6 °F89 %29.69 in10.0 miSouth (190°)23.0 mph29.9 mphMostly Cloudy
6:28 AM80.6 °F77.0 °F89 %29.70 in10.0 miSSW (200°)21.9 mph29.9 mphMostly Cloudy
6:58 AM80.6 °F75.7 °F85 %29.68 in10.0 miSSW (200°)15.0 mph31.1 mphMostly Cloudy
7:08 AM80.6 °F75.2 °F84 %29.72 in10.0 miSouth (190°)19.6 mph28.8 mphScattered Clouds
7:58 AM81.3 °F76.8 °F86 %29.72 in10.0 miSSW (200°)18.4 mph26.5 mphScattered Clouds
8:03 AM80.6 °F77.0 °F89 %29.75 in10.0 miSSW (200°)20.7 mph28.8 mphMostly Cloudy
8:33 AM78.8 °F77.0 °F94 %29.76 in8.0 miSouth (190°)25.3 mph31.1 mphMostly Cloudy
8:38 AM78.8 °F77.0 °F94 %29.76 in10.0 miSouth (190°)20.7 mph32.2 mphMostly Cloudy
8:42 AM78.8 °F77.0 °F94 %29.76 in10.0 miSSW (200°)16.1 mph32.2 mphRainLight Rain
8:52 AM78.8 °F77.0 °F94 %29.77 in10.0 miSSW (200°)18.4 mph28.8 mphMostly Cloudy
8:54 AM78.8 °F77.0 °F94 %29.77 in10.0 miSSW (200°)19.6 mph28.8 mphRainLight Rain
8:58 AM79.0 °F76.8 °F93 %29.74 in8.0 miSSW (200°)18.4 mph28.8 mph0.03 inRainLight Rain
9:08 AM78.8 °F77.0 °F94 %29.76 in10.0 miSSW (200°)16.1 mph27.6 mphRainLight Rain
9:10 AM78.8 °F77.0 °F94 %29.76 in10.0 miSSW (200°)19.6 mph27.6 mphMostly Cloudy
9:15 AM78.8 °F77.0 °F94 %29.76 in10.0 miSSW (200°)16.1 mph27.6 mphMostly Cloudy
9:20 AM78.8 °F77.0 °F94 %29.76 in8.0 miSSW (200°)18.4 mph23.0 mphMostly Cloudy
9:25 AM80.6 °F77.0 °F89 %29.76 in8.0 miSSW (200°)18.4 mph28.8 mphMostly Cloudy
9:35 AM80.6 °F77.0 °F89 %29.76 in10.0 miSSW (200°)18.4 mph27.6 mphScattered Clouds
9:58 AM81.5 °F77.5 °F88 %29.73 in10.0 miSSW (200°)23.0 mph29.9 mph0.02 inPartly Cloudy
10:18 AM80.6 °F77.0 °F89 %29.76 in10.0 miSSW (200°)20.7 mph29.9 mphMostly Cloudy
10:23 AM80.6 °F77.0 °F89 %29.76 in10.0 miSSW (200°)25.3 mph32.2 mphMostly Cloudy
10:33 AM80.6 °F75.2 °F84 %29.76 in10.0 miSSW (200°)18.4 mph34.5 mphScattered Clouds
10:49 AM80.6 °F75.2 °F84 %29.75 in10.0 miSSW (200°)25.3 mph32.2 mphLight Drizzle
10:58 AM79.7 °F75.7 °F88 %29.72 in10.0 miSSW (200°)20.7 mph31.1 mph0.00 inRainLight Rain
10:59 AM80.6 °F75.2 °F84 %29.75 in10.0 miSSW (200°)17.3 mph27.6 mphScattered Clouds
11:58 AM81.5 °F75.4 °F82 %29.70 in10.0 miSSW (200°)16.1 mph25.3 mph0.00 inScattered Clouds
12:47 PM80.6 °F75.2 °F84 %29.72 in4.0 miSSW (200°)26.5 mph39.1 mphRainLight Rain
12:57 PM78.8 °F77.0 °F94 %29.72 in6.0 miSSW (200°)18.4 mph31.1 mphRainLight Rain
12:58 PM78.6 °F76.5 °F93 %29.69 in6.0 miSSW (200°)18.4 mph31.1 mph0.02 inRainLight Rain
1:05 PM77.0 °F75.2 °F94 %29.72 in8.0 miSouth (190°)16.1 mph24.2 mphScattered Clouds
1:15 PM78.8 °F77.0 °F94 %29.72 in8.0 miSouth (190°)16.1 mph21.9 mphMostly Cloudy
1:30 PM80.6 °F77.0 °F89 %29.71 in10.0 miSouth (190°)20.7 mph27.6 mphRainLight Rain
1:35 PM80.6 °F78.8 °F94 %29.70 in10.0 miSouth (190°)21.9 mph27.6 mphRainLight Rain
1:39 PM80.6 °F78.8 °F94 %29.70 in10.0 miSSW (200°)20.7 mph31.1 mphMostly Cloudy
1:47 PM80.6 °F77.0 °F89 %29.71 in2.0 miSSW (200°)34.5 mph46.0 mphRainLight Rain
1:52 PM78.8 °F77.0 °F94 %29.71 in1.0 miSSW (200°)21.9 mph46.0 mphRainHeavy Rain
1:57 PM77.0 °F75.2 °F94 %29.70 in1.0 miSSW (200°)13.8 mph43.7 mphRainRain
1:58 PM77.0 °F75.2 °F94 %29.67 in1.0 miSSW (200°)13.8 mph43.7 mph0.17 inRainRain
2:03 PM77.0 °F75.2 °F94 %29.71 in3.0 miSSW (200°)17.3 mph32.2 mphRainLight Rain
2:08 PM77.0 °F77.0 °F100 %29.71 in6.0 miSouth (190°)16.1 mph27.6 mphRainLight Rain
2:13 PM77.0 °F77.0 °F100 %29.71 in6.0 miSouth (190°)17.3 mph27.6 mphRainLight Rain
2:18 PM77.0 °F77.0 °F100 %29.70 in5.0 miSouth (190°)17.3 mphRainLight Rain
2:20 PM78.8 °F77.0 °F94 %29.70 in6.0 miSouth (190°)20.7 mphOvercast
2:25 PM78.8 °F77.0 °F94 %29.70 in9.0 miSouth (190°)20.7 mph29.9 mphOvercast
2:30 PM78.8 °F77.0 °F94 %29.70 in10.0 miSouth (190°)21.9 mph29.9 mphRainLight Rain
2:39 PM78.8 °F75.2 °F89 %29.70 in10.0 miSouth (190°)19.6 mph27.6 mphOvercast
2:58 PM78.3 °F76.3 °F94 %29.65 in10.0 miSouth (180°)21.9 mph0.02 inMostly Cloudy
3:20 PM80.6 °F78.8 °F94 %29.68 in8.0 miSouth (180°)25.3 mph34.5 mphRain-ThunderstormLight Rain
3:25 PM78.8 °F77.0 °F94 %29.69 in4.0 miSouth (190°)26.5 mph39.1 mphRain-ThunderstormLight Rain
3:30 PM78.8 °F77.0 °F94 %29.69 in4.0 miSSW (200°)19.6 mph39.1 mphRain-ThunderstormLight Rain
3:31 PM78.8 °F77.0 °F94 %29.69 in4.0 miSSW (200°)20.7 mph39.1 mphThunderstormMostly Cloudy
3:51 PM78.8 °F77.0 °F94 %29.70 in10.0 miSouth (190°)20.7 mphScattered Clouds
3:58 PM78.4 °F76.5 °F94 %29.67 in10.0 miSouth (190°)18.4 mph0.07 inScattered Clouds
4:03 PM78.8 °F77.0 °F94 %29.70 in10.0 miSSW (200°)15.0 mph24.2 mphMostly Cloudy
4:08 PM78.8 °F77.0 °F94 %29.70 in10.0 miSouth (190°)16.1 mph25.3 mphMostly Cloudy
4:47 PM77.0 °F73.4 °F89 %29.73 in10.0 miSSW (200°)16.1 mph31.1 mphRainHeavy Rain
4:52 PM75.2 °F73.4 °F94 %29.73 in2.0 miSW (230°)19.6 mph31.1 mphRainHeavy Rain
4:57 PM77.0 °F75.2 °F94 %29.73 in1.5 miSSW (210°)16.1 mph28.8 mphRainLight Rain
4:58 PM75.7 °F74.5 °F96 %29.70 in1.5 miSSW (210°)16.1 mph28.8 mph0.20 inRainLight Rain
5:03 PM75.2 °F75.2 °F100 %29.73 in4.0 miSouth (190°)18.4 mph28.8 mphRainLight Rain
5:07 PM75.2 °F73.4 °F94 %29.72 in2.5 miSouth (180°)21.9 mph29.9 mphRainLight Rain
5:12 PM75.2 °F75.2 °F100 %29.72 in1.5 miSouth (190°)24.2 mph29.9 mphRainLight Rain
5:17 PM77.0 °F75.2 °F94 %29.72 in2.0 miSouth (190°)18.4 mph29.9 mphRainLight Rain
5:22 PM77.0 °F77.0 °F100 %29.72 in2.5 miSSW (200°)16.1 mph29.9 mphRainLight Rain
5:27 PM77.0 °F77.0 °F100 %29.72 in4.0 miSSW (210°)17.3 mph27.6 mphRainLight Rain
5:37 PM78.8 °F77.0 °F94 %29.72 in7.0 miSSW (200°)17.3 mphRainLight Rain
5:42 PM77.0 °F77.0 °F100 %29.71 in8.0 miSouth (190°)18.4 mph25.3 mphRainLight Rain
5:52 PM75.2 °F75.2 °F100 %29.73 in2.5 miSouth (190°)23.0 mph33.4 mphRainHeavy Rain
5:57 PM73.4 °F73.4 °F100 %29.73 in1.8 miSSW (200°)20.7 mph33.4 mphRainLight Rain
5:58 PM73.4 °F71.6 °F94 %29.70 in1.8 miSSW (200°)19.6 mph33.4 mph0.23 inRainLight Rain
6:03 PM77.0 °F75.2 °F94 %29.73 in5.0 miSSW (210°)16.1 mph32.2 mphRainLight Rain
6:10 PM77.0 °F75.2 °F94 %29.73 in10.0 miSSW (210°)16.1 mph23.0 mphPartly Cloudy
6:34 PM78.8 °F77.0 °F94 %29.74 in10.0 miSouth (190°)18.4 mph25.3 mphRainLight Rain
6:46 PM78.8 °F77.0 °F94 %29.75 in10.0 miSSW (200°)19.6 mph25.3 mphClear
6:58 PM79.0 °F76.8 °F93 %29.72 in10.0 miSSW (200°)18.4 mph27.6 mph0.01 inPartly Cloudy
6:59 PM78.8 °F77.0 °F94 %29.76 in10.0 miSSW (200°)18.4 mph27.6 mphLight Drizzle
7:07 PM78.8 °F77.0 °F94 %29.76 in10.0 miSSW (200°)19.6 mph26.5 mphMostly Cloudy
7:12 PM78.8 °F77.0 °F94 %29.76 in10.0 miSouth (190°)20.7 mph29.9 mphMostly Cloudy
7:17 PM78.8 °F77.0 °F94 %29.76 in10.0 miSSW (200°)18.4 mph29.9 mphScattered Clouds
7:50 PM78.8 °F75.2 °F89 %29.77 in10.0 miSSW (210°)17.3 mph23.0 mphRainLight Rain
7:58 PM78.6 °F75.4 °F90 %29.74 in10.0 miSSW (200°)17.3 mph27.6 mph0.00 inRainLight Rain
8:12 PM78.8 °F75.2 °F89 %29.78 in10.0 miSSW (200°)15.0 mph24.2 mphClear
8:18 PM78.8 °F75.2 °F89 %29.78 in10.0 miSSW (200°)16.1 mph21.9 mphRainLight Rain
8:19 PM78.8 °F75.2 °F89 %29.78 in10.0 miSSW (200°)17.3 mph25.3 mphClear
8:54 PM78.8 °F75.2 °F89 %29.78 in10.0 miSSW (200°)18.4 mph26.5 mphMostly Cloudy
8:56 PM78.8 °F75.2 °F89 %29.78 in10.0 miSSW (200°)19.6 mph26.5 mphLight Drizzle
8:58 PM78.8 °F75.2 °F89 %29.75 in10.0 miSSW (200°)19.6 mph26.5 mph0.00 inLight Drizzle
9:03 PM78.8 °F75.2 °F89 %29.78 in10.0 miSSW (200°)18.4 mph26.5 mphRainLight Rain
9:21 PM78.8 °F77.0 °F94 %29.78 in10.0 miSSW (200°)13.8 mph26.5 mphScattered Clouds
9:36 PM78.8 °F75.2 °F89 %29.79 in10.0 miSouth (190°)17.3 mph23.0 mphMostly Cloudy
9:58 PM78.4 °F76.5 °F94 %29.77 in10.0 miSouth (190°)20.7 mph24.2 mph0.00 inMostly Cloudy
10:53 PM77.0 °F75.2 °F94 %29.78 in10.0 miSouth (190°)18.4 mphMostly Cloudy
10:58 PM75.9 °F74.1 °F94 %29.75 in10.0 miSouth (180°)20.7 mph27.6 mphMostly Cloudy
11:38 PM71.6 °F69.8 °F94 %29.78 in10.0 miSouth (180°)19.6 mph24.2 mphMostly Cloudy
11:43 PM71.6 °F69.8 °F94 %29.78 in10.0 miSouth (190°)19.6 mphScattered Clouds
11:53 PM73.4 °F69.8 °F88 %29.78 in10.0 miSouth (180°)17.3 mphScattered Clouds
11:58 PM72.5 °F70.0 °F92 %29.75 in10.0 miSouth (180°)19.6 mph25.3 mphScattered Clouds
Hourly data recorded from PGUA, located miles away from Umatac, Guam







STORIES FROM OUR PARTNERS